,

(GMT )
Al Udeid

Weather History for KQIR - December, 2013

Change the Weather History Date:

Monday, December 16, 2013

  Actual Average Record
Temperature  
Mean Temperature 60 °F -  
Max Temperature 65 °F - - ()
Min Temperature 56 °F - - ()
Degree Days  
Heating Degree Days 4    
Growing Degree Days 10 (Base 50)    
Moisture  
Dew Point 47 °F    
Average Humidity 61    
Maximum Humidity 74    
Minimum Humidity 50    
Precipitation  
Precipitation 0.00 in - - ()
Sea Level Pressure  
Sea Level Pressure 30.21 in    
Wind  
Wind Speed 18 mph ()    
Max Wind Speed 24 mph    
Max Gust Speed 31 mph    
Visibility 6.0 miles    
Events      
Averages and records for this station are not official NWS values.
T = Trace of Precipitation, MM = Missing Value Source: Averaged Metar Reports

Daily Weather History Graph

Daily Weather History Graph

Search for Another Location

Airport or City:

Trip Planner

Search our weather history database for the weather conditions in past years. The results will help you decide how hot, cold, wet, or windy it might be!

Date:

Astronomy

Dec. 16, 2013 Rise Set
Actual Time 6:12 AM +03 4:47 PM +03
Civil Twilight 5:47 AM +03 5:12 PM +03
Nautical Twilight 5:19 AM +03 5:41 PM +03
Astronomical Twilight 4:51 AM +03 6:09 PM +03
Moon 4:14 PM +03 (12/16) 5:07 AM +03 (12/16)
Length of Visible Light 11h 24m
Length of Day
10h 34m
Waxing Gibbous, 99% of the Moon is Illuminated
Dec 16
Waxing Gibbous
Dec 17
Full
Dec 25
Last Quarter
Jan 1
New
Jan 8
First Quarter

Hourly Weather History & Observations

Time (+03) Temp. Dew Point Humidity Pressure Visibility Wind Dir Wind Speed Gust Speed Precip Events Conditions
12:58 AM 63.0 °F 50.4 °F 63% 30.17 in 6.2 mi NNW 21.9 mph - N/A   Clear
1:58 AM 62.1 °F 50.0 °F 65% 30.18 in 6.2 mi NNW 18.4 mph - N/A   Clear
2:58 AM 60.1 °F 50.5 °F 71% 30.17 in 6.2 mi NW 20.7 mph - N/A   Clear
3:58 AM 59.0 °F 50.2 °F 73% 30.18 in 6.2 mi NW 18.4 mph - N/A   Clear
4:58 AM 58.6 °F 49.3 °F 71% 30.20 in 6.2 mi NW 23.0 mph - N/A   Clear
5:58 AM 58.1 °F 49.3 °F 72% 30.21 in 6.2 mi NW 19.6 mph - N/A   Clear
6:58 AM 57.9 °F 49.8 °F 74% 30.25 in 6.2 mi NW 18.4 mph - N/A   Clear
7:58 AM 59.2 °F 49.6 °F 71% 30.26 in 6.2 mi NW 18.4 mph - N/A   Clear
8:58 AM 61.2 °F 49.1 °F 65% 30.26 in 5.0 mi NW 21.9 mph - N/A   Widespread Dust
9:58 AM 63.3 °F 48.9 °F 59% 30.27 in 3.7 mi NW 24.2 mph - N/A   Widespread Dust
10:58 AM 64.2 °F 47.5 °F 55% 30.25 in 5.0 mi NW 23.0 mph 28.8 mph N/A   Widespread Dust
11:58 AM 64.8 °F 46.8 °F 52% 30.22 in 5.6 mi NNW 23.0 mph 27.6 mph N/A   Widespread Dust
12:58 PM 65.1 °F 46.2 °F 50% 30.19 in 6.2 mi NNW 21.9 mph 27.6 mph N/A   Clear
1:58 PM 64.8 °F 46.0 °F 51% 30.19 in 6.2 mi NNW 23.0 mph 31.1 mph N/A   Clear
2:58 PM 63.3 °F 46.4 °F 54% 30.20 in 6.2 mi NW 21.9 mph - N/A   Clear
3:58 PM 62.6 °F 46.6 °F 56% 30.21 in 6.2 mi NW 20.7 mph 27.6 mph N/A   Clear
4:58 PM 61.0 °F 46.2 °F 58% 30.20 in 6.2 mi NNW 21.9 mph 26.5 mph N/A   Clear
5:58 PM 60.1 °F 45.9 °F 59% 30.21 in 6.2 mi NW 16.1 mph - N/A   Clear
6:58 PM 59.2 °F 44.6 °F 58% 30.21 in 6.2 mi NW 15.0 mph - N/A   Clear
7:58 PM 59.0 °F 44.1 °F 58% 30.21 in 6.2 mi NW 11.5 mph - N/A   Scattered Clouds
8:58 PM 58.1 °F 43.5 °F 58% 30.22 in 6.2 mi NW 13.8 mph - N/A   Clear
9:58 PM 57.2 °F 43.2 °F 59% 30.21 in 6.2 mi NW 16.1 mph - N/A   Clear
10:58 PM 56.5 °F 41.5 °F 57% 30.20 in 6.2 mi NW 16.1 mph - N/A   Clear
11:58 PM 56.1 °F 41.7 °F 58% 30.18 in 6.2 mi NW 15.0 mph - N/A   Clear